Regional Weather Roundup
Issued by NWS Huntsville, AL

Home | Current Version | Previous Version | Text Only | Print | Product List | Glossary On
Versions: 1 2 3 4 5 6 7 8 9 10 11 12 13 14 15 16 17 18 19 20 21 22 23 24 25 26 27
000
ASUS44 KHUN 271910
RWRHUN

WEATHER ROUNDUP FOR THE TENNESSEE VALLEY
NATIONAL WEATHER SERVICE HUNTSVILLE AL
200 PM CDT THU JUL 27 2017

ALZ001>004-272000-
NORTHWEST ALABAMA

CITY           SKY/WX    TMP DP  RH WIND       PRES   REMARKS
COURTLAND HCN    N/A     91 N/A N/A W8          N/A
RUSSELLVILLE     N/A     90 N/A N/A MISG        N/A
SHOALS AIRPORT MOSUNNY   95  70  44 W12       30.01F HX 101
SHOALS TVA RES   N/A     91 N/A N/A MISG        N/A
$$

ALZ005>007-016-272000-
NORTH CENTRAL ALABAMA

CITY           SKY/WX    TMP DP  RH WIND       PRES   REMARKS
CULLMAN AG STN   N/A     91 N/A N/A SW7         N/A
DECATUR AP     SUNNY     93  72  50 W8        30.01F HX 101
HUNTSVILLE AP  MOSUNNY   93  71  48 W12G17    30.01F HX 100
MERIDIANVILLE  MOSUNNY   90  66  45 W8        30.01F HX  92
REDSTONE ARSN  MOSUNNY   91  73  55 NW12      30.00F HX 100
VINEMONT AP    FAIR      91  71  50 SW8G16    30.06S HX  97
$$

ALZ008>010-272000-
NORTHEAST ALABAMA

CITY           SKY/WX    TMP DP  RH WIND       PRES   REMARKS
ALBERTVILLE    MOSUNNY   91  79  66 W12       30.02F HX 107
FORT PAYNE     CLOUDY    86  72  62 SE6       30.01F HX  92
SCOTTSBORO AP  CLOUDY    91  73  55 W12       30.00F HX 100
SCOTTSBORO HCN   N/A     90 N/A N/A MISG        N/A
VALLEY HEAD      N/A     81 N/A N/A MISG        N/A
$$

TNZ076-096-097-272000-
SOUTHEASTERN MIDDLE TENNESSEE

CITY           SKY/WX    TMP DP  RH WIND       PRES   REMARKS
TULLAHOMA      SUNNY     90  68  48 W8        30.03S HX  93
WINCHESTER     MOSUNNY   90  73  58 NW6       30.02S HX  98
$$

...SURROUNDING SITES...

CITY           SKY/WX    TMP DP  RH WIND       PRES   REMARKS
ATLANTA        MOSUNNY   89  70  53 VRB5      30.02F HX  94
ANNISTON       CLOUDY    91  74  57 SW7       30.00F HX 100
BIRMINGHAM     MOSUNNY   93  71  48 W13       30.03F HX 100
CHATTANOOGA    CLOUDY    77  72  84 CALM      30.02F
CORINTH        FAIR      93  73  52 SW9       29.98F HX 102
DALTON         NOT AVBL
GADSDEN        CLOUDY    93  75  55 W8        30.00F HX 104
GOLDEN TRNGL   MOSUNNY   95  70  43 W6        29.97F HX 101
JACKSON TN     PTSUNNY   93  76  57 W12       29.97F HX 105
MEMPHIS        CLOUDY    92  76  59 SW9G18    29.98F HX 104
NASHVILLE      CLOUDY    92  73  53 VRB7      29.97F HX 100
OXFORD MS      FAIR      90  72  55 W9        30.01F HX  96
ROME           CLOUDY    80  72  76 N9        30.01R
SAVANNAH       SUNNY     93  72  49 W7G15     29.97F HX 100
TUPELO         PTSUNNY   94  69  44 VRB5      29.99F HX  99
TUSCALOOSA     MOSUNNY   93  72  50 SW8       30.01F HX 101
$$

...GULF COAST WEATHER...

CITY           SKY/WX    TMP DP  RH WIND       PRES   REMARKS
GULFPORT       MOSUNNY   95  69  42 CALM      30.00F HX 100
PASCAGOULA     PTSUNNY   96  72  45 VRB6      30.00F HX 104
MOBILE         CLOUDY    91  74  57 CALM      30.01F HX 100
GULF SHORES    MOCLDY    90  77  66 SE7G16    30.00F HX 103
PENSACOLA      PTSUNNY   91  75  59 VRB6      29.99F HX 101
DESTIN         MOSUNNY   92  73  53 VRB5      29.99F THUNDER HX 100
PANAMA CITY    MOSUNNY   90  78  68 W13       29.97F HX 104
APPALACHICOLA  SUNNY     89  80  74 SW10      29.97F HX 106
$$





USA.gov is the U.S. government's official web portal to all federal, state and local government web resources and services.